[[{"header":{"parameterUnit":"m.s-1","parameterCategory":1,"la1":30.2991,"la2":30.254,"lo1":-89.0895,"lo2":-89.0444,"dy":0.0017,"dx":0.0017,"nx":28,"ny":28,"refTime":"2024-03-17T09:00:00:Z","depth":0,"parameterNumber":2,"parameterNumberName":"U-component_of_WINDS"},"data":[0,0,0,0,0,0,0,0,0,0,0,0,0,0,0,0,0,0,0,0,0,0,0,0,0,0,0,0,0,0,0,0,0,0,0,0,0,0,0,0,0,0,0,0,0,0,0,0,0,0,0,0,0,0,0,0,0,0,0.771,0.771,0,0.7744,0.7744,0.7744,0.7776,0.7776,0.7777,0.7777,0.781,0.7811,0.7811,0,0,0,0,0,0,0,0,0,0,0,0,0,0.7673,0.7673,0.771,0.771,0.7711,0.7743,0.7744,0.7744,0.7776,0.7776,0.7777,0.7777,0.781,0.7811,0.7811,0,0,0,0,0,0,0,0,0,0,0,0,0,0.7696,0.7673,0.771,0.773,0.7733,0.7743,0.7744,0.7745,0.7776,0.7776,0.7777,0.7778,0.781,0.7811,0.7812,0.7804,0,0,0.7814,0.7814,0,0,0,0,0,0,0,0,0.7695,0.7697,0.7727,0.7729,0.7731,0.7756,0.7743,0.7764,0.7776,0.7759,0.7777,0.7778,0.7792,0.7794,0.7799,0.7806,0.7807,0.7814,0.7814,0.7815,0.7815,0,0,0,0,0,0,0,0.7693,0.7696,0.7723,0.7727,0.773,0.7738,0.7742,0.7747,0.7772,0.7761,0.7763,0.7767,0.7793,0.7798,0.78,0.7808,0.7814,0.7815,0.7815,0.7815,0.7812,0.7811,0,0,0,0,0,0,0.7688,0.7694,0.7722,0.7724,0.7714,0.7738,0.7743,0.7748,0.7772,0.7776,0.7766,0.7768,0.7797,0.7799,0.7801,0.7795,0.7815,0.7816,0.7816,0.7812,0.7812,0.7811,0,0,0,0,0,0,0.7687,0.769,0.7721,0.771,0.7714,0.7738,0.7744,0.7748,0.7753,0.7776,0.778,0.7767,0.7797,0.78,0.7804,0.7796,0.7816,0.7817,0.7813,0.7812,0.7811,0.7781,0,0,0,0,0,0,0.7686,0.769,0.7687,0.771,0.7715,0.7722,0.7743,0.7748,0.7754,0.7757,0.7778,0.7782,0.7798,0.7802,0.7804,0.7798,0.7817,0.7814,0.7812,0.7812,0.7783,0.778,0.7777,0,0,0,0,0,0.7685,0.7677,0.7687,0.769,0.7712,0.7722,0.7725,0.7744,0.7754,0.7751,0.7766,0.7781,0.7797,0.7802,0.7805,0.7799,0.7814,0.7813,0.7812,0.7784,0.778,0.7777,0,0,0,0,0,0,0.7652,0.768,0.7691,0.7691,0.7704,0.7727,0.7724,0.7739,0.7748,0.7751,0.7774,0.7778,0.7779,0.7789,0.7795,0.7794,0.7808,0.7807,0.7786,0.7783,0.7779,0.7776,0.7818,0,0,0,0,0,0.7644,0.765,0.7675,0.7672,0.7678,0.77,0.7705,0.7719,0.7733,0.7738,0.7754,0.7767,0.7775,0.7779,0.7788,0.7785,0.7791,0.7782,0.7779,0.7776,0.7775,0.7775,0.7772,0.7807,0.7807,0.7807,0,0,0.7629,0.7645,0.7647,0.7665,0.7677,0.7682,0.7704,0.7709,0.7713,0.7739,0.7743,0.7755,0.7771,0.7772,0.7773,0.778,0.7767,0.7775,0.7773,0.7773,0.7773,0.777,0.7767,0.7806,0.7806,0.7806,0,0,0.7604,0.7617,0.7616,0.7628,0.7646,0.7661,0.7661,0.7683,0.7692,0.7697,0.7717,0.7723,0.7736,0.7747,0.7754,0.7736,0.775,0.7738,0.7721,0.772,0.7718,0.7715,0.7709,0.7706,0.7737,0.7737,0.7737,0,0.7582,0.7591,0.7614,0.7617,0.7625,0.765,0.765,0.766,0.768,0.7684,0.7693,0.7712,0.7724,0.7728,0.7724,0.7729,0.773,0.7735,0.7716,0.7714,0.7712,0.7706,0.7704,0.7735,0.7736,0.7736,0.7736,0,0.7564,0.757,0.7568,0.7587,0.7594,0.7596,0.7619,0.7624,0.7638,0.7652,0.7657,0.7674,0.7687,0.7689,0.7702,0.7695,0.77,0.7712,0.7727,0.7707,0.7702,0.77,0.7733,0.7734,0.7734,0.7734,0,0,0.7516,0.755,0.7548,0.7558,0.7581,0.7586,0.7589,0.7603,0.7607,0.762,0.7623,0.7636,0.7648,0.7656,0.7671,0.7671,0.7656,0.7684,0.7685,0.7678,0.7649,0.7639,0.7636,0.7666,0.7666,0.7666,0.7648,0,0.7494,0.7502,0.7523,0.7524,0.753,0.7556,0.7559,0.7573,0.7587,0.7595,0.7611,0.7619,0.7635,0.764,0.7641,0.7657,0.765,0.7659,0.7669,0.7669,0.7663,0.7633,0.7622,0.7604,0.7646,0.7646,0.7645,0,0.7469,0.7482,0.7483,0.7507,0.7511,0.7513,0.7528,0.7535,0.7552,0.7563,0.7573,0.7591,0.7596,0.7611,0.7619,0.7625,0.763,0.7639,0.7639,0.7639,0.7655,0.7632,0.7599,0.7596,0.7642,0.7642,0.7643,0,0.7433,0.7451,0.7455,0.7462,0.749,0.7492,0.7503,0.7522,0.7529,0.7542,0.7547,0.7561,0.7568,0.7578,0.7599,0.7608,0.7605,0.7621,0.7613,0.7612,0.761,0.7609,0.7576,0.7615,0.7615,0.7615,0.7615,0,0.7406,0.7406,0.7439,0.7441,0.7442,0.7468,0.7468,0.7482,0.7499,0.7504,0.7528,0.7532,0.756,0.7568,0.7585,0.7589,0.7592,0.76,0.7605,0.7598,0.7596,0.76,0.7602,0.7615,0.7615,0.7615,0.7615,0,0.7365,0.7388,0.7393,0.7421,0.7427,0.7427,0.745,0.7453,0.747,0.7477,0.748,0.7506,0.7517,0.7539,0.7556,0.7567,0.7567,0.7575,0.7561,0.7564,0.7554,0.7555,0.7521,0.7518,0.756,0.756,0.756,0,0.7345,0.7346,0.7374,0.7379,0.739,0.7399,0.7407,0.7433,0.744,0.7462,0.7462,0.7475,0.7487,0.7503,0.7523,0.7537,0.7545,0.7532,0.7547,0.754,0.7544,0.7543,0.7543,0.7528,0.7528,0.7527,0.7527,0,0.7307,0.7319,0.733,0.7345,0.7354,0.7367,0.7382,0.7385,0.7414,0.7421,0.7433,0.7442,0.7461,0.7473,0.749,0.7502,0.7519,0.7523,0.7522,0.7514,0.7505,0.7509,0.7551,0.7523,0.7523,0.7524,0.7524,0.7524,0.7276,0.7278,0.7298,0.731,0.7324,0.7337,0.7342,0.736,0.7371,0.7388,0.7403,0.7413,0.7432,0.7457,0.7469,0.7477,0.7486,0.7484,0.7483,0.7482,0.7479,0.7505,0.7481,0.7481,0.7481,0.7481,0.7481,0,0.7239,0.7254,0.7264,0.7284,0.7294,0.7311,0.7328,0.7335,0.7344,0.7361,0.7372,0.7386,0.74,0.7422,0.7437,0.744,0.7448,0.7443,0.7442,0.7445,0.7471,0.747,0.7436,0.7436,0.7436,0.7436,0.7436,0.7436,0.722,0.7225,0.7239,0.7252,0.7267,0.7278,0.7286,0.7299,0.7313,0.7328,0.7339,0.7354,0.7374,0.7391,0.7403,0.741,0.7414,0.7406,0.7414,0.7438,0.7443,0.7447,0.7446,0.7407,0.7407,0.7387,0.7387,0.7387]},{"header":{"parameterUnit":"m.s-1","parameterCategory":1,"la1":30.2991,"la2":30.254,"lo1":-89.0895,"lo2":-89.0444,"dy":0.0017,"dx":0.0017,"nx":28,"ny":28,"refTime":"2024-03-17T09:00:00:Z","depth":0,"parameterNumber":3,"parameterNumberName":"V-component_of_WINDS"},"data":[0,0,0,0,0,0,0,0,0,0,0,0,0,0,0,0,0,0,0,0,0,0,0,0,0,0,0,0,0,0,0,0,0,0,0,0,0,0,0,0,0,0,0,0,0,0,0,0,0,0,0,0,0,0,0,0,0,0,-8.2075,-8.2076,0,-8.2229,-8.2231,-8.2233,-8.2109,-8.2103,-8.2098,-8.2093,-8.2247,-8.2256,-8.2265,0,0,0,0,0,0,0,0,0,0,0,0,0,-8.1667,-8.1675,-8.2074,-8.2076,-8.2078,-8.2229,-8.2231,-8.2233,-8.211,-8.2103,-8.2097,-8.2091,-8.2244,-8.2255,-8.2265,0,0,0,0,0,0,0,0,0,0,0,0,0,-8.1835,-8.1678,-8.2074,-8.2035,-8.2033,-8.2229,-8.2231,-8.2234,-8.2111,-8.2103,-8.2095,-8.2088,-8.224,-8.2254,-8.2267,-8.2508,0,0,-8.2308,-8.2314,0,0,0,0,0,0,0,0,-8.1826,-8.185,-8.2039,-8.2038,-8.2036,-8.2142,-8.2144,-8.2326,-8.2113,-8.2081,-8.2093,-8.2084,-8.2218,-8.2233,-8.2279,-8.2515,-8.2522,-8.2309,-8.2317,-8.2323,-8.2327,0,0,0,0,0,0,0,-8.1814,-8.1843,-8.2135,-8.2042,-8.204,-8.2008,-8.2023,-8.2178,-8.2192,-8.2083,-8.2075,-8.2095,-8.2216,-8.2266,-8.2282,-8.2524,-8.2309,-8.2321,-8.2329,-8.2334,-8.2966,-8.2975,0,0,0,0,0,0,-8.1807,-8.1834,-8.2131,-8.214,-8.191,-8.2022,-8.2039,-8.2116,-8.219,-8.2194,-8.2102,-8.2089,-8.2247,-8.2266,-8.2287,-8.2575,-8.2323,-8.2336,-8.2344,-8.2958,-8.2968,-8.2978,0,0,0,0,0,0,-8.1799,-8.1835,-8.2124,-8.1985,-8.2019,-8.2037,-8.2125,-8.2123,-8.2173,-8.2204,-8.2205,-8.2151,-8.2242,-8.2268,-8.2454,-8.2579,-8.2342,-8.2354,-8.2948,-8.2961,-8.2973,-8.3153,0,0,0,0,0,0,-8.1788,-8.1833,-8.1926,-8.1988,-8.2027,-8.2292,-8.2132,-8.2132,-8.2198,-8.2182,-8.2251,-8.2254,-8.2237,-8.2435,-8.2468,-8.2593,-8.2365,-8.2937,-8.2954,-8.2969,-8.3137,-8.3171,-8.3201,0,0,0,0,0,-8.1774,-8.1969,-8.1931,-8.1967,-8.2144,-8.2299,-8.2321,-8.23,-8.2208,-8.2301,-8.2321,-8.2252,-8.2559,-8.2455,-8.2491,-8.2622,-8.2929,-8.2949,-8.2968,-8.3122,-8.3164,-8.32,0,0,0,0,0,0,-8.1919,-8.1976,-8.1935,-8.2156,-8.2224,-8.2278,-8.2395,-8.2345,-8.2438,-8.242,-8.2387,-8.2404,-8.2601,-8.2629,-8.2512,-8.286,-8.2729,-8.2757,-8.2834,-8.2875,-8.2906,-8.2895,-8.2376,0,0,0,0,0,-8.1977,-8.2099,-8.2142,-8.2333,-8.237,-8.2377,-8.2443,-8.2421,-8.2489,-8.2516,-8.2549,-8.2617,-8.2728,-8.2802,-8.2907,-8.3139,-8.3153,-8.3247,-8.3279,-8.3305,-8.333,-8.3456,-8.3499,-8.3042,-8.3042,-8.3042,0,0,-8.2097,-8.2144,-8.2223,-8.2364,-8.2413,-8.254,-8.2402,-8.2541,-8.2634,-8.2537,-8.2717,-8.2743,-8.2816,-8.3027,-8.3122,-8.3057,-8.3459,-8.333,-8.3351,-8.3361,-8.348,-8.3524,-8.3562,-8.3055,-8.3053,-8.3051,0,0,-8.2382,-8.243,-8.2595,-8.2648,-8.2726,-8.273,-8.2769,-8.2832,-8.2846,-8.3026,-8.2956,-8.3065,-8.3258,-8.3314,-8.3367,-8.3674,-8.3615,-8.3708,-8.3876,-8.4,-8.4036,-8.4067,-8.4178,-8.4218,-8.3733,-8.3733,-8.3733,0,-8.2522,-8.2712,-8.2685,-8.2832,-8.2896,-8.2815,-8.2982,-8.3034,-8.3141,-8.3187,-8.3113,-8.3355,-8.3398,-8.3622,-8.3697,-8.3742,-8.3786,-8.3701,-8.4033,-8.4064,-8.4093,-8.4199,-8.424,-8.3744,-8.3743,-8.3742,-8.3741,0,-8.288,-8.3013,-8.3136,-8.3245,-8.3323,-8.3478,-8.3475,-8.3556,-8.3527,-8.3538,-8.3722,-8.3771,-8.3885,-8.3936,-8.3908,-8.4156,-8.4114,-8.4037,-8.3906,-8.4149,-8.4247,-8.4287,-8.376,-8.3756,-8.3753,-8.375,0,0,-8.3261,-8.3354,-8.34,-8.3449,-8.3529,-8.3631,-8.3782,-8.3895,-8.3966,-8.4042,-8.4169,-8.4334,-8.4264,-8.4325,-8.4302,-8.441,-8.4652,-8.432,-8.4321,-8.4381,-8.493,-8.4988,-8.5035,-8.4612,-8.462,-8.4626,-8.4924,0,-8.3551,-8.3817,-8.3799,-8.4049,-8.4171,-8.4096,-8.4228,-8.4291,-8.4306,-8.441,-8.4424,-8.4543,-8.4441,-8.4478,-8.4581,-8.4601,-8.4762,-8.4579,-8.4729,-8.4735,-8.4715,-8.5086,-8.5148,-8.5428,-8.4962,-8.4969,-8.4973,0,-8.3925,-8.4017,-8.4281,-8.4344,-8.4394,-8.4514,-8.4616,-8.4717,-8.4787,-8.4789,-8.4859,-8.4818,-8.4969,-8.4834,-8.5042,-8.4918,-8.4978,-8.4997,-8.5007,-8.5021,-8.487,-8.5112,-8.5516,-8.5559,-8.5033,-8.5028,-8.5024,0,-8.4179,-8.4368,-8.4551,-8.4594,-8.4672,-8.4758,-8.4794,-8.4856,-8.4925,-8.5014,-8.5059,-8.5163,-8.5221,-8.5302,-8.529,-8.5192,-8.5503,-8.5366,-8.5509,-8.551,-8.5579,-8.5575,-8.6,-8.5616,-8.5615,-8.5614,-8.5613,0,-8.4505,-8.467,-8.4666,-8.4779,-8.496,-8.4936,-8.5117,-8.5142,-8.5198,-8.5313,-8.5253,-8.5363,-8.534,-8.5448,-8.5439,-8.5614,-8.564,-8.5646,-8.5642,-8.5652,-8.5652,-8.5692,-8.5673,-8.5625,-8.5623,-8.5621,-8.5619,0,-8.482,-8.4824,-8.5019,-8.5077,-8.5095,-8.5227,-8.5276,-8.5382,-8.5391,-8.5538,-8.557,-8.5585,-8.5709,-8.5705,-8.5846,-8.584,-8.6055,-8.6027,-8.6033,-8.6028,-8.6172,-8.6159,-8.6639,-8.6701,-8.6275,-8.6279,-8.6283,0,-8.5029,-8.5154,-8.5227,-8.5301,-8.5343,-8.5463,-8.5534,-8.5514,-8.5591,-8.568,-8.5775,-8.5894,-8.5989,-8.6191,-8.6213,-8.6321,-8.6296,-8.6457,-8.6312,-8.6319,-8.63,-8.6294,-8.6307,-8.6486,-8.649,-8.6494,-8.6497,0,-8.54,-8.5396,-8.5502,-8.561,-8.5698,-8.5781,-8.5857,-8.592,-8.5909,-8.5998,-8.6126,-8.6199,-8.6344,-8.6463,-8.6567,-8.6601,-8.6549,-8.6543,-8.6582,-8.6595,-8.6593,-8.6598,-8.6112,-8.6532,-8.6529,-8.6526,-8.6524,-8.6523,-8.5669,-8.5778,-8.5846,-8.5967,-8.6022,-8.6095,-8.6198,-8.6221,-8.6328,-8.6447,-8.6427,-8.6571,-8.6637,-8.677,-8.6815,-8.6925,-8.6868,-8.6925,-8.6939,-8.6954,-8.6971,-8.6575,-8.6944,-8.6943,-8.6942,-8.6941,-8.694,0,-8.6039,-8.6079,-8.619,-8.63,-8.6395,-8.6338,-8.642,-8.6502,-8.663,-8.6697,-8.6792,-8.6939,-8.7055,-8.7086,-8.7197,-8.728,-8.7259,-8.731,-8.7304,-8.7313,-8.7015,-8.6971,-8.7326,-8.7326,-8.7325,-8.7325,-8.7325,-8.7325,-8.6242,-8.6423,-8.6428,-8.6635,-8.6674,-8.6816,-8.6868,-8.6934,-8.6988,-8.7156,-8.7252,-8.7273,-8.7325,-8.744,-8.7543,-8.7549,-8.7593,-8.7655,-8.7652,-8.7373,-8.7334,-8.7297,-8.7256,-8.7665,-8.7665,-8.7941,-8.7944,-8.7946]}]]